EHI
0 0 1 1 1 0 0 0 0 0 0 0 0 0 0 0 0 0 0 0 0 0 0 0 0 0 0 0 0 0 0 0 0 0 0 0 0 0 0 0 0 0 0
0 0 0 0 0 0 0 0 0 0 0 0 0 0 0 0 0 0 0 0 0 0 0 0 0 0 0 0 0 0 0 0 0 0 0 0 0 0 0 0 0 0 0
0 0 0 0 0 0 0 0 0 0 0 0 0 0 0 0 0 0 0 0 0 0 0 0 0 0 0 0 0 0 0 0 0 0 0 0 0 0 0 0 0 0 0
0 0 0 0 0 0 0 0 0 0 0 0 0 0 0 0 0 0 0 0 0 0 0 0 0 0 0 0 0 0 0 0 0 0 0 0 0 0 0 0 0 0 0
0 0 0 0 0 0 0 0 0 0 0 0 0 0 0 0 0 0 0 0 0 0 0 0 0 0 0 0 0 0 0 0 0 0 0 0 0 0 0 0 0 0 0
0 0 0 0 0 0 0 0 0 0 0 0 0 0 0 0 0 0 0 0 0 0 0 0 0 0 0 0 0 0 0 0 0 0 0 0 0 0 0 0 0 0 0
0 0 0 0 0 0 0 0 0 0 0 0 0 0 0 0 0 0 0 0 0 0 0 0 0 0 0 0 0 0 0 0 0 0 0 0 0 0 0 0 0 0 0
0 0 0 0 0 0 0 0 0 0 0 0 0 0 0 0 0 0 0 0 0 0 0 0 0 0 0 0 0 0 0 0 0 0 0 0 0 0 0 0 0 0 0
0 0 0 0 0 0 0 0 0 0 0 0 0 0 0 0 0 0 0 0 0 0 0 0 0 0 0 0 0 0 0 0 0 0 0 0 0 0 0 0 0 0 0
0 0 0 0 0 0 0 0 0 0 0 0 0 0 0 0 0 0 0 0 0 0 0 0 0 0 0 0 0 0 0 0 0 0 0 0 0 0 0 0 0 0 0
0 0 0 0 0 0 0 0 0 0 0 0 0 0 0 0 0 0 0 0 0 0 0 0 0 0 0 0 0 0 0 0 0 0 0 0 0 0 0 0 0 0 0
0 0 0 0 0 0 0 0 0 0 0 0 0 0 0 0 0 0 0 0 0 0 0 0 0 0 0 0 0 0 0 0 0 0 0 0 0 0 0 0 0 0 0
0 0 0 0 0 0 0 0 0 0 0 0 0 0 0 0 0 0 0 0 0 0 0 0 0 0 0 0 0 0 0 0 0 0 0 0 0 0 0 0 0 0 0
0 0 0 0 0 0 0 0 0 0 0 0 0 0 0 0 0 0 0 0 0 0 0 0 0 0 0 0 0 0 0 0 0 0 0 0 0 0 0 0 0 0 0
0 0 0 0 0 0 0 0 0 0 0 0 0 0 0 0 0 0 0 0 0 0 0 0 0 0 0 0 0 0 0 0 0 0 0 0 0 0 0 0 0 0 0
0 0 0 0 0 0 0 0 0 0 0 0 0 0 0 0 0 0 0 0 0 0 0 0 0 0 0 0 0 0 0 0 0 0 0 0 0 0 0 0 0 0 0
0 0 0 0 0 0 0 0 0 0 0 0 0 0 0 0 0 0 0 0 0 0 0 0 0 0 0 0 0 0 0 0 0 0 0 0 0 0 0 0 0 0 0
0 0 0 0 0 0 0 0 0 0 0 0 0 0 0 0 0 0 0 0 0 0 0 0 0 0 0 0 0 0 0 0 0 0 0 0 0 0 0 0 0 0 0
0 0 0 0 0 0 0 0 0 0 0 0 0 0 0 0 0 0 0 0 0 0 0 0 0 0 0 0 0 0 0 0 0 0 0 0 0 0 0 0 0 0 0
0 0 0 0 0 0 0 0 0 0 0 0 0 0 0 0 0 0 0 0 0 0 0 0 0 0 0 0 0 0 0 0 0 0 0 0 0 0 0 0 0 0 0
0 0 0 0 0 0 0 0 0 0 0 0 0 0 0 0 0 0 0 0 0 0 0 0 0 0 0 0 0 0 0 0 0 0 0 0 0 0 0 0 0 0 0
0 0 0 0 0 0 0 0 0 0 0 0 0 0 0 0 0 0 0 0 0 0 0 0 0 0 0 0 0 0 0 0 0 0 0 0 0 0 0 0 0 0 0
0 0 0 0 0 0 0 0 0 0 0 0 0 0 0 0 0 0 0 0 0 0 0 0 0 0 0 0 0 0 0 0 0 0 0 0 0 0 0 0 0 0 0
0 0 0 0 0 0 0 0 0 0 0 0 0 0 0 0 0 0 0 0 0 0 0 0 0 0 0 0 0 0 0 0 0 0 0 0 0 0 0 0 0 0 0
0 0 0 0 0 0 0 0 0 0 0 0 0 0 0 0 0 0 0 0 0 0 0 0 0 0 0 0 0 0 0 0 0 0 0 0 0 0 0 0 0 0 0
0 0 0 0 0 0 0 0 0 0 0 0 0 0 0 0 0 0 0 0 0 0 0 0 0 0 0 0 0 0 0 0 0 0 0 0 0 0 0 0 0 0 0
Wind_Speed
2 2 1 1 2 1 2 1 1 2 3 3 3 3 3 2 2 2 1 4 5 5 5 5 6 5 5 6 5 5 4 4 5 5 5 4 4 4 4 4 5 5 5
2 2 2 2 2 2 2 2 2 2 2 2 3 3 3 3 2 2 2 3 4 4 4 5 5 5 4 5 5 5 4 4 4 4 4 4 4 4 4 4 5 5 5
2 2 2 2 2 2 2 2 2 2 3 3 3 3 3 2 2 2 2 1 2 3 4 3 4 4 4 4 3 4 4 4 4 4 4 4 5 5 4 4 5 5 5
3 2 2 2 2 2 2 3 3 3 2 2 2 2 2 2 2 2 2 2 1 1 2 4 3 3 3 3 3 3 4 4 4 4 4 5 4 5 5 4 5 5 6
3 2 2 2 2 2 2 3 3 3 3 2 2 2 1 1 1 2 2 2 1 1 1 3 4 3 3 3 3 3 3 4 4 4 5 5 5 5 5 6 5 5 6
3 2 2 2 2 2 2 2 3 3 3 3 3 2 1 1 1 1 2 1 1 1 1 1 1 2 3 3 3 4 4 4 4 4 5 5 5 6 6 6 6 6 6
2 2 2 3 3 2 3 4 3 4 2 3 3 2 2 2 1 0 1 1 1 1 1 1 1 1 1 3 3 4 4 5 5 5 5 5 6 6 7 7 6 6 7
2 3 3 3 3 3 3 3 4 3 2 2 3 3 1 2 2 1 0 1 1 1 1 1 1 1 0 1 3 4 5 6 6 6 6 6 7 7 7 7 7 7 7
2 2 2 3 3 3 4 4 4 5 3 1 2 4 3 2 1 1 1 0 1 0 0 0 1 1 1 1 2 3 5 6 7 7 7 7 7 7 8 8 8 8 7
2 2 2 3 3 3 4 4 3 3 5 3 1 1 2 3 3 1 1 1 1 1 1 1 1 2 1 1 2 4 5 6 7 8 8 8 8 8 9 9 9 10 9
1 2 2 2 3 3 3 3 3 3 3 3 2 2 1 1 2 2 2 2 1 2 2 2 2 2 2 2 2 3 5 6 7 8 8 8 8 9 9 10 10 10 10
0 1 2 2 3 2 3 3 4 4 3 3 2 2 2 2 2 2 2 2 3 2 2 2 2 2 2 2 4 5 6 7 8 9 9 9 9 10 10 10 10 11 10
1 2 2 2 2 3 3 3 3 3 3 4 3 2 1 2 2 2 2 2 2 2 2 2 2 2 2 2 3 6 6 7 8 9 10 10 10 10 10 11 11 11 11
2 2 2 2 2 3 3 3 2 2 2 3 2 2 2 2 2 2 2 2 2 2 2 3 2 2 2 2 4 6 5 8 9 10 10 10 10 10 10 11 11 11 11
2 2 2 2 2 2 2 3 2 2 2 2 2 2 2 2 2 1 2 3 3 3 4 3 2 2 2 2 4 3 4 8 9 10 10 9 9 9 10 10 10 11 12
2 3 2 2 2 1 1 2 2 2 2 2 2 2 2 1 1 1 2 2 2 3 5 3 3 3 3 3 5 4 4 9 10 10 10 10 10 10 10 10 10 11 11
3 3 3 3 2 2 2 2 2 2 3 2 1 2 2 2 1 1 1 1 2 2 4 4 2 2 3 4 4 3 4 4 5 10 10 10 10 10 10 10 10 11 11
3 3 3 3 2 2 2 2 2 2 2 2 2 2 3 2 2 2 1 2 2 3 3 5 4 2 3 4 4 4 4 4 4 8 10 10 10 10 11 10 10 11 11
3 3 3 3 2 2 2 2 2 2 2 2 2 3 3 2 2 2 2 2 2 2 2 3 4 3 3 3 3 4 4 3 4 6 8 10 10 11 11 11 11 11 11
3 3 2 2 2 2 2 2 2 2 2 2 2 2 2 3 3 3 3 3 2 2 2 2 4 4 3 3 2 3 4 3 4 4 6 7 9 10 11 11 11 11 11
2 2 2 2 2 2 2 3 3 2 2 2 1 2 3 3 4 3 2 2 2 2 2 3 3 3 3 3 3 3 4 4 4 3 3 4 4 4 5 9 10 11 11
2 2 2 2 2 2 3 3 2 2 2 2 2 2 2 3 3 3 4 5 4 4 3 3 4 4 5 4 3 3 3 3 4 2 2 5 3 4 5 4 10 12 12
1 1 1 2 2 2 3 3 3 2 2 2 2 2 2 2 2 2 3 5 5 7 6 5 5 6 5 4 4 4 4 4 6 3 2 5 3 5 5 6 12 13 12
1 1 1 2 2 2 3 3 3 1 2 2 3 3 3 3 3 3 2 3 3 4 5 4 5 5 5 4 5 5 5 4 4 3 2 5 4 4 5 4 10 12 12
1 1 2 2 2 2 3 3 2 2 2 3 3 3 3 3 5 4 2 3 4 4 5 6 7 7 8 7 5 2 2 3 5 4 2 3 4 4 4 4 6 10 10
2 2 1 2 2 3 4 3 3 2 2 2 2 2 4 5 5 5 3 3 4 5 3 3 4 5 4 5 6 4 3 3 4 4 2 2 3 2 4 3 3 4 5
Wind_Direction
173 176 176 169 174 161 150 141 127 125 116 111 114 114 112 107 98 82 68 87 96 101 103 100 92 84 77 72 66 59 57 54 47 42 33 27 27 20 17 16 16 12 6
172 179 176 171 181 172 159 154 147 135 126 122 113 113 114 109 103 96 74 67 76 92 102 100 92 81 72 67 57 49 42 40 36 27 25 23 13 6 3 360 3 0 355
166 177 174 175 186 174 151 139 122 115 113 110 108 108 110 108 107 99 87 73 62 68 85 96 88 76 65 55 44 39 36 30 23 20 7 0 4 356 345 344 346 346 344
161 162 176 184 179 165 150 145 138 115 111 115 112 104 105 112 107 98 87 84 74 60 61 71 68 61 53 44 31 28 24 13 11 8 2 357 345 348 339 331 332 330 332
167 165 179 180 167 159 157 155 140 131 128 121 117 100 94 108 123 112 105 102 104 95 74 61 55 50 39 28 15 9 2 355 353 352 350 347 345 337 337 330 319 318 322
172 162 177 169 160 152 155 147 142 132 134 132 109 77 52 55 94 123 132 121 115 111 100 75 44 31 32 14 359 351 347 347 340 338 338 335 333 330 325 320 325 327 327
174 165 177 166 162 160 164 155 144 137 124 126 99 69 23 19 39 120 123 123 112 109 102 107 87 42 355 355 340 336 331 330 327 326 326 326 322 320 320 317 316 322 325
181 171 169 170 166 157 153 160 147 138 136 139 135 126 79 359 350 22 54 128 138 92 107 145 169 160 342 320 324 330 323 318 315 315 316 318 316 315 315 318 316 312 314
174 167 162 167 164 166 169 174 167 150 161 193 161 147 153 194 261 309 309 94 113 95 236 202 219 224 242 273 292 310 317 312 308 308 309 310 312 313 314 312 311 309 305
167 161 155 163 164 166 169 171 167 157 160 175 193 154 153 156 165 232 303 310 288 249 240 237 232 256 252 262 279 302 309 307 302 303 304 305 307 310 310 308 311 310 307
155 160 162 164 166 171 168 164 164 164 166 175 179 170 133 118 161 171 230 265 287 264 249 240 227 233 250 260 268 282 299 298 299 301 301 301 305 307 308 310 308 310 309
157 164 167 163 167 165 162 168 169 168 171 167 172 179 168 176 188 176 209 243 263 268 261 249 234 230 237 248 271 290 292 290 293 296 296 297 303 304 307 306 308 307 308
173 203 175 166 173 171 168 161 161 164 168 169 172 189 188 208 191 183 185 231 266 280 270 260 243 231 244 245 267 287 286 289 291 291 292 295 299 301 303 304 304 307 306
185 177 164 154 157 164 162 157 159 163 162 165 171 185 193 214 199 187 189 194 263 284 270 259 272 238 245 251 266 284 282 289 290 290 291 293 296 299 299 301 303 305 305
160 144 143 133 131 143 155 155 159 171 164 168 172 184 205 219 199 199 189 188 196 257 269 253 253 253 258 256 267 273 271 281 287 288 289 292 295 296 296 297 301 302 303
147 141 135 133 138 148 146 155 166 174 164 177 174 180 209 225 196 197 195 213 214 227 261 251 243 250 269 282 282 277 268 284 285 286 287 290 292 292 293 293 295 298 299
147 148 150 149 154 158 155 152 172 171 168 181 198 194 213 206 208 218 210 220 238 226 254 276 260 251 249 266 282 276 271 270 276 282 285 287 289 291 292 291 293 295 297
150 148 144 144 147 144 141 155 169 175 171 185 206 202 217 213 215 224 219 232 243 234 231 265 281 270 256 254 263 268 280 280 271 282 285 286 288 290 291 289 289 290 293
146 144 151 156 159 159 156 164 168 183 188 197 209 211 215 205 225 232 238 243 253 256 235 243 271 279 275 270 272 275 275 277 282 287 286 287 289 292 292 288 288 290 291
151 155 165 168 170 172 172 176 177 188 193 215 228 227 219 212 218 223 234 235 238 250 239 243 266 278 277 274 258 271 287 279 284 294 288 287 290 291 291 288 288 289 290
151 158 158 163 174 182 189 184 184 190 191 213 243 251 241 237 238 241 248 237 226 238 247 249 260 274 278 276 265 260 275 286 283 273 283 282 285 283 283 284 284 283 283
146 149 167 179 197 214 211 208 205 192 195 206 233 263 266 255 247 263 270 265 255 245 246 248 256 258 265 264 268 270 276 286 284 264 270 281 270 269 270 263 277 282 284
151 159 180 188 211 228 223 217 225 211 203 219 230 243 259 259 277 248 267 280 275 272 264 253 248 250 254 252 252 264 264 264 267 269 274 279 272 269 269 274 281 283 286
168 179 190 206 216 238 238 235 234 224 220 230 233 234 232 237 239 251 251 265 272 272 270 262 243 248 250 246 238 249 258 271 275 270 242 271 279 274 282 277 281 283 285
179 197 203 205 216 245 250 243 243 207 228 244 246 244 239 240 250 267 261 261 276 279 285 277 274 275 273 271 269 265 268 277 284 277 231 245 273 287 286 277 283 290 292
193 196 210 210 213 233 246 251 255 213 230 251 258 245 247 255 261 267 250 241 263 275 280 293 293 293 287 276 273 255 238 257 273 274 239 231 266 296 297 283 283 291 286